Location: Nandig?ma
(16.7717°N, 80.2860°E)
Time: 16:33:44
(UTC+00:00)

NOSS 2-1 (D) - Pass Details

Date: 03 August 2024
Orbit: 384 x 1730 km, 63.3° (Epoch: 19 September)

Event Time Altitude Azimuth Distance (km) Brightness Sun altitude
Rises 13:52:55 0° 192° (SSW) 3,589 7.4 -10.4°
Reaches altitude 10° 13:55:58 10° 185° (S) 2,406 6.4 -11.1°
Maximum altitude 14:00:58 40° 117° (ESE) 937 4.0 -12.2°
Drops below altitude 10° 14:04:39 10° 46° (NE) 1,767 5.7 -13.0°
Sets 14:06:35 0° 38° (NE) 2,530 6.5 -13.5°
